User: anonymous   Login
Location: Unspecified
(0.0000°N, 0.0000°E)
Time: 13:22:08
(UTC+00:00)
Language:

SWIFT - Orbit

View from above orbital plane
View from above orbital plane
View from above satellite
View from above satellite

Ground track
Ground track

The orbit data is extracted from the following two-line orbital elements,

1 28485U 04047A   21342.94608411  .00001168  00000-0  48451-4 0  9999
2 28485  20.5554 206.4732 0010985  45.3997 314.7332 15.05329733934797
Epoch (UTC): 08 December 2021 22:42:21
Eccentricity: 0.0010985
inclination: 20.5554°
perigee height: 543 km
apogee height: 558 km
right ascension of ascending node: 206.4732°
argument of perigee: 45.3997°
revolutions per day: 15.05329733
mean anomaly at epoch: 314.7332°
orbit number at epoch: 93479

The dashed part of the orbit path shows where the satellite is in the earth's shadow,  

DLR